Weather History for West Palm Beach, FL

Change the Weather History Date:

Monday, September 16, 2013

  Actual Average Record
Temperature  
Mean Temperature 81 °F 82 °F  
Max Temperature 87 °F 88 °F 95 °F (1990)
Min Temperature 75 °F 75 °F 67 °F (1947)
Degree Days  
Heating Degree Days 0 0  
Month to date heating degree days 0 0  
Since 1 July heating degree days 0 0  
Cooling Degree Days 16 17  
Month to date cooling degree days 279 272  
Year to date cooling degree days 3150 2978  
Growing Degree Days 31 (Base 50)    
Moisture  
Dew Point 76 °F    
Average Humidity 86    
Maximum Humidity 100    
Minimum Humidity 72    
Precipitation  
Precipitation 0.58 in 0.31 in 6.00 in (1928)
Month to date precipitation 3.66 4.53  
Year to date precipitation 51.28 45.25  
Snow  
Snow 0.00 in - - ()
Month to date snowfall 0.0  
Since 1 July snowfall 0.0  
Since 1 September snowfall 0.0  
Snow Depth 0.00 in    
Sea Level Pressure  
Sea Level Pressure 30.02 in    
Wind  
Wind Speed 10 mph (ENE)    
Max Wind Speed 30 mph    
Max Gust Speed 37 mph    
Visibility 8 miles    
Events Fog , Rain , Thunderstorm    
T = Trace of Precipitation, MM = Missing Value Source: NWS Daily Summary

Daily Weather History Graph

Daily Weather History Graph

Search for Another Location

Airport:

Trip Planner

Search our weather history database for the weather conditions in past years. The results will help you decide how hot, cold, wet, or windy it might be!

Date:

Astronomy

Sep. 16, 2013 Rise Set
Actual Time 7:06 AM EDT 7:23 PM EDT
Civil Twilight 6:43 AM EDT 7:46 PM EDT
Nautical Twilight 6:16 AM EDT 8:13 PM EDT
Astronomical Twilight 5:48 AM EDT 8:40 PM EDT
Moon 5:20 PM EDT (9/16) 4:04 AM EDT (9/16)
Length of Visible Light 13h 03m
Length of Day
12h 16m
Waxing Gibbous, 90% of the Moon is Illuminated
Sep 16
Waxing Gibbous
Sep 19
Full
Sep 26
Last Quarter
Oct 4
New
Oct 11
First Quarter

Hourly Weather History & Observations

Time (EDT) Temp. Heat Index Dew Point Humidity Pressure Visibility Wind Dir Wind Speed Gust Speed Precip Events Conditions
12:53 AM 81.0 °F 87.3 °F 75.9 °F 85% 30.02 in 10.0 mi East 11.5 mph - 0.00 in   Mostly Cloudy
1:53 AM 81.0 °F 87.9 °F 77.0 °F 88% 30.01 in 10.0 mi ENE 9.2 mph - N/A   Mostly Cloudy
2:53 AM 81.0 °F 87.9 °F 77.0 °F 88% 30.00 in 10.0 mi East 9.2 mph - N/A   Mostly Cloudy
3:48 AM 82.4 °F 92.4 °F 78.8 °F 89% 30.00 in 10.0 mi East 9.2 mph - N/A   Mostly Cloudy
3:53 AM 82.0 °F 91.0 °F 78.1 °F 88% 30.00 in 10.0 mi East 9.2 mph - N/A   Mostly Cloudy
4:53 AM 81.0 °F 88.6 °F 78.1 °F 91% 30.00 in 10.0 mi ENE 9.2 mph - 0.01 in   Mostly Cloudy
5:53 AM 82.0 °F 91.0 °F 78.1 °F 88% 30.01 in 10.0 mi East 9.2 mph - 0.00 in   Mostly Cloudy
6:11 AM 80.6 °F 88.1 °F 78.8 °F 94% 30.01 in 10.0 mi East 9.2 mph - N/A   Mostly Cloudy
6:53 AM 82.0 °F 91.6 °F 79.0 °F 90% 30.01 in 10.0 mi East 11.5 mph - 0.02 in Rain Light Rain
7:53 AM 82.0 °F 91.0 °F 78.1 °F 88% 30.00 in 10.0 mi East 12.7 mph - 0.00 in   Mostly Cloudy
8:10 AM 82.4 °F 92.4 °F 78.8 °F 89% 30.01 in 10.0 mi ENE 16.1 mph 21.9 mph N/A   Mostly Cloudy
8:26 AM 82.4 °F 89.5 °F 75.2 °F 79% 30.01 in 10.0 mi East 12.7 mph - N/A   Mostly Cloudy
8:53 AM 82.9 °F 91.8 °F 77.0 °F 82% 30.02 in 10.0 mi ENE 11.5 mph - N/A   Mostly Cloudy
9:53 AM 84.9 °F 95.3 °F 77.0 °F 77% 30.04 in 10.0 mi East 15.0 mph - N/A   Mostly Cloudy
10:53 AM 87.1 °F 98.8 °F 77.0 °F 72% 30.04 in 10.0 mi East 12.7 mph - N/A   Mostly Cloudy
11:19 AM 84.2 °F 96.1 °F 78.8 °F 84% 30.04 in 10.0 mi East 12.7 mph - N/A Thunderstorm Thunderstorm
11:33 AM 84.2 °F 96.1 °F 78.8 °F 84% 30.04 in 10.0 mi East 13.8 mph 19.6 mph 0.00 in Rain , Thunderstorm Light Thunderstorms and Rain
11:41 AM 77.0 °F - 75.2 °F 94% 30.05 in 0.5 mi East 23.0 mph 36.8 mph 0.01 in Fog , Rain , Thunderstorm Heavy Thunderstorms and Rain
11:44 AM 75.2 °F - 73.4 °F 94% 30.06 in 0.2 mi East 24.2 mph 36.8 mph 0.03 in Fog , Rain , Thunderstorm Heavy Thunderstorms and Rain
11:51 AM 75.2 °F - 75.2 °F 100% 30.05 in 0.5 mi ENE 12.7 mph 27.6 mph 0.34 in Fog , Rain , Thunderstorm Heavy Thunderstorms and Rain
11:53 AM 75.0 °F - 75.0 °F 100% 30.05 in 0.5 mi ENE 11.5 mph 27.6 mph 0.39 in Fog , Rain , Thunderstorm Heavy Thunderstorms and Rain
11:57 AM 75.2 °F - 75.2 °F 100% 30.04 in 1.5 mi ENE 11.5 mph - 0.03 in Rain , Thunderstorm Heavy Thunderstorms and Rain
12:05 PM 77.0 °F - 75.2 °F 94% 30.05 in 2.0 mi East 5.8 mph 16.1 mph 0.04 in Rain , Thunderstorm Heavy Thunderstorms and Rain
12:08 PM 77.0 °F - 75.2 °F 94% 30.05 in 3.0 mi SE 4.6 mph - 0.04 in Rain , Thunderstorm Thunderstorms and Rain
12:37 PM 80.6 °F 87.1 °F 77.0 °F 89% 30.04 in 5.0 mi SE 9.2 mph - 0.08 in Rain Light Rain
12:53 PM 80.1 °F 85.4 °F 75.9 °F 87% 30.03 in 10.0 mi Variable 4.6 mph - 0.09 in Rain Light Rain
1:53 PM 79.0 °F - 78.1 °F 97% 30.04 in 10.0 mi East 4.6 mph - 0.03 in Rain Light Rain
2:53 PM 78.1 °F - 75.9 °F 93% 30.01 in 10.0 mi NNW 5.8 mph - 0.04 in Rain Light Rain
3:53 PM 78.1 °F - 77.0 °F 96% 30.00 in 10.0 mi North 8.1 mph - 0.00 in Rain Light Rain
4:53 PM 79.0 °F - 78.1 °F 97% 29.99 in 10.0 mi North 5.8 mph - 0.00 in   Overcast
5:53 PM 79.0 °F - 74.1 °F 85% 29.98 in 10.0 mi NE 12.7 mph - N/A   Overcast
6:53 PM 80.1 °F 84.4 °F 73.4 °F 80% 29.97 in 10.0 mi NNE 9.2 mph - N/A   Overcast
7:53 PM 79.0 °F - 73.6 °F 83% 29.98 in 10.0 mi ENE 11.5 mph - N/A   Mostly Cloudy
8:53 PM 80.1 °F 84.4 °F 73.4 °F 80% 29.99 in 10.0 mi ENE 10.4 mph - N/A   Mostly Cloudy
9:53 PM 80.1 °F 84.5 °F 73.6 °F 81% 30.00 in 10.0 mi ENE 10.4 mph - N/A   Scattered Clouds
10:53 PM 80.1 °F 84.5 °F 73.6 °F 81% 30.01 in 10.0 mi East 10.4 mph - N/A   Scattered Clouds
11:32 PM 80.6 °F 85.4 °F 73.4 °F 79% 30.01 in 10.0 mi East 12.7 mph - N/A   Mostly Cloudy
11:53 PM 80.1 °F 84.4 °F 73.2 °F 80% 30.01 in 10.0 mi East 10.4 mph - N/A   Mostly Cloudy